Regional Weather Roundup
Issued by NWS Charleston, SC

Current Version | Previous Version | Graphics & Text | Print | Product List | Glossary On
Versions: 1 2 3 4 5 6 7 8 9 10 11 12 13 14 15 16 17 18 19 20 21 22 23 24 25 26 27 28 29 30 31 32 33 34 35 36 37 38 39 40 41 42 43 44 45 46 47 48 49 50
419
ASUS42 KCHS 211912
RWRCHS

REGIONAL WEATHER ROUNDUP
NATIONAL WEATHER SERVICE CHARLESTON SC
300 PM EDT THU MAY 21 2015

NOTE: "FAIR" INDICATES FEW OR NO CLOUDS BELOW 12,000 FEET WITH NO
SIGNIFICANT WEATHER AND/OR OBSTRUCTIONS TO VISIBILITY.

NOT ALL STATIONS ARE QUALITY CONTROLLED BY THE NATIONAL
WEATHER SERVICE. USE DATA WITH CAUTION...ESPECIALLY
DEWPOINT OBSERVATIONS.

SCZ027-030-031-034>040-042>050-212000-
...SOUTHEAST SOUTH CAROLINA...

CITY           SKY/WX    TMP DP  RH WIND       PRES   REMARKS
N CHARLESTON   MOSUNNY   88  64  44 W17G23    29.82F
WATERFRONT PAR   N/A     87  67  51 W6        29.80F HX  90
MOUNT PLEASANT FAIR      88  66  48 W9G17     29.81F HX  90
JOHNS ISLAND   PTCLDY    90  66  45 W12G18    29.83S HX  92
PINOPOLIS      NOT AVBL
MONCKS CORNER  FAIR      88  66  48 NW5       29.82S HX  90
SUMMERVILLE    FAIR      88  68  51 W12       29.83F HX  91
BEAUFORT MCAS  MOSUNNY   92  61  35 W15G24    29.85S HX  92
BEAUFORT ARPT  FAIR      90  64  43 W18       29.85S HX  91
HILTON HEAD IS SUNNY     90  59  35 W12G18    29.86F
WALTERBORO     PTCLDY    88  61  40 W10G22    29.84F
ALLENDALE      FAIR      91  57  31 VRB5G18   29.84F HX  90

...SOUTHERN MIDLANDS AND PEE DEE...

CITY           SKY/WX    TMP DP  RH WIND       PRES   REMARKS
GEORGETOWN     NOT AVBL
KINGSTREE      NOT AVBL
ORANGEBURG     SUNNY     88  63  43 NW14      29.83F
BARNWELL       FAIR      91  57  31 W14G22    29.85S HX  90
AIKEN          FAIR      88  52  29 W13G24    29.89F
MANNING        FAIR      88  63  42 W12G18    29.81S
COLUMBIA       MOSUNNY   90  61  37 NW12      29.81F HX  90
SUMTER         MOSUNNY   90  64  43 W13       29.79F HX  91
FLORENCE       MOSUNNY   89  65  44 W15       29.77S HX  91
MYRTLE BEACH   PTSUNNY   90  82  79 SW16      29.78F HX 111
N MYRTLE BEACH MOSUNNY   80  74  81 S12       29.77F

$$

GAZ063-065-086>088-099>101-113>116-118-119-134>141-150-212000-
...SOUTHEAST GEORGIA...

CITY           SKY/WX    TMP DP  RH WIND       PRES   REMARKS
SAVANNAH ARPT  MOSUNNY   91  60  35 W17       29.87F HX  90
HUNTER AAF     SUNNY     92  64  39 W15G24    29.85F HX  93
FORT STEWART   SUNNY     91  61  35 W12G21    29.87S HX  91
STATESBORO     SUNNY     90  65  43 W13G21    29.88F HX  91
SYLVANIA       CLEAR     92  63  38 W15       29.88F HX  93
CLAXTON        FAIR      90  63  40 W6G18     29.89F HX  90

...CSRA...CENTRAL AND FAR SOUTHEAST GEORGIA...

CITY           SKY/WX    TMP DP  RH WIND       PRES   REMARKS
THOMSON        SUNNY     88  63  42 W13G21    29.94S
AUGUSTA-BUSH   SUNNY     90  60  36 W12       29.85F
AUGUSTA-DANIEL SUNNY     89  60  37 VRB7G22   29.88S
SWAINSBORO     FAIR      91  61  35 W12G18    29.90F HX  91
VIDALIA        SUNNY     90  61  37 W8G20     29.91F
EASTMAN        FAIR      91  61  36 NW10G21   29.94F HX  90
HAZLEHURST     FAIR      91  60  35 NW6G16    29.91F HX  90
ALMA           SUNNY     89  61  38 W10       29.92F
WAYCROSS       SUNNY     92  64  39 NW15G22   29.92F HX  93
JESUP          FAIR      93  63  36 W12G18    29.91S HX  94
BAXLEY         FAIR      91  63  38 W12G18    29.91F HX  92
BRUNSWICK      SUNNY     91  57  31 SW15      29.90F HX  90
SAINT SIMONS   NOT AVBL

$$

SCZ027-028-034-036>038-045-046-048>050-GAZ119-141-212000-
...LAKE AND SUPPLEMENTAL COASTAL OBSERVATIONS...

STATION/POSITION TIME  TEMP    WIND        PRES    WAVE   SWELL
                       AIR SEA DIR/SP/G            HT/PER HT/PER/DIR
                 (UTC) (F)     (DEG/KT/KT) (MB)    (FT/S) (FT/S/D)
UPR LAKE MARION  NOT AVBL
WINYAH BAY       NOT AVBL
LAKE MURRAY      1800   83     280/  7/ 12 1009.8F
ACE BASIN NERRS  NOT AVBL
FORT PULASKI     1800   86 79  270/ 13/ 17 1012.0F
SAPELO ISLAND    1800   89     260/ 12     1012.0F

$$

ANZ835-935-AMZ111-154-330-350-352-354-370-450-454-472-212000-
...C-MAN AND BUOY OBSERVATIONS...

STATION/POSITION TIME  TEMP    WIND        PRES    WAVE   SWELL
                       AIR SEA DIR/SP/G            HT/PER HT/PER/DIR
                 (UTC) (F)     (DEG/KT/KT) (MB)    (FT/S) (FT/S/D)
BUOY 41004       1850   76 76  230/ 17/ 19 1009.6F   3/ 5   2/ 8
BUOY 41008       1850   80 79  210/ 10/ 12 1012.4F   1/ 9
FOLLY BEACH CMAN 1900   87     260/  9/ 13 1009.9F
CAPERS NEARSHORE 1808   78     230/ 17/ 23 1010.3F
FRIPP NEARSHORE  1800   82     260/ 10/ 10 1010.8F


STATION/POSITION TIME  TEMP    WIND        PRES    WAVE   SWELL
                       AIR SEA DIR/SP/G            HT/PER HT/PER/DIR
                 (UTC) (F)     (DEG/KT/KT) (MB)    (FT/S) (FT/S/D)
5E ST. MARYS GA  1821      79                N/A     1/ 9
FRYING PAN BUOY  1850   79 77  200/ 12/ 16 1009.5F   3/ 5   2/ 90/ 6
BUOY 41025       1850   76 77  150/ 17/ 19 1009.7F   4/ 5   2/ 70/ 9
CAPE LOOKOUT NC  1900   75     160/ 10/ 11 1008.8F
BUOY 41002       1850   75 76  210/ 12/ 14 1013.7F   3/ 5   2/110/ 8
BUOY 41010       1820   80 79  250/ 10/ 12 1015.2F
ST AUGUSTINE FL  1900   80 72  140/ 10/ 12 1014.0F


$$



USA.gov is the U.S. government's official web portal to all federal, state and local government web resources and services.